Content
SEND FEEDBACK

Daily
Averages
Monthly
Summary
Canada

VANCOUVER, BRITISH COLUMBIA


Home > North America > Canada > British Columbia
Elevation: 7 feet     Latitude: 49 11N     Longitude: 123 10W

WEATHER
 
SELECT A DAY
Number of Records: 249,332;   Date Range: 5/15/97 - 7/30/14
 
SHARE

PRINT THIS DATA

[ ← Previous Day ]
WEATHER ALMANAC - MARCH 2, 2013
[ Next Day → ]
[ °C ]   °F
Weather ElementAverageHighLow
Temperature46.8 °F51.8 °F (11:55 am)37.4 °F (11:15 pm)
Dewpoint44 °F48.2 °F (12:55 am)35.6 °F (7:55 pm)
Humidity90.4 %100 % (12:55 am)71 % (5:55 pm)
Barometer30.10 in30.21 in (12:55 am)30.00 in (1:35 pm)
Wind Speed7 mph12.7 mph (1:35 pm)
Wind Gust19.6 mph (1:15 pm)
Weather ElementAverage
Visibility9 mi
Wind DirectionSSW (191.8 °)

Weather ElementTotal
Precipitation0.03 in
Heating Degree Days20.4 (Base 65)
Averaged from 66 records on March 2, 2013
WEATHER CONDITIONS BREAKOUT
WIND DIRECTION BREAKOUT
WEATHER BY HOUR - MARCH 2, 2013
[ °C ]   °F
Local TimeTemperatureDewpointHumidityBarometerVisibilityWind DirectionWind SpeedGust SpeedPrecipitationEventsConditions
12:55 AM48.2 °F48.2 °F100 %30.21 in4.0 miCalmRainLight Rain
1:15 AM48.2 °F48.2 °F100 %30.20 in5.0 miSouth (190°)4.6 mphRainLight Rain
1:35 AM48.2 °F48.2 °F100 %30.20 in7.0 miSSW (200°)3.5 mphRainLight Rain
1:55 AM48.2 °F48.2 °F100 %30.20 in8.0 miCalmRainLight Rain
2:15 AM48.2 °F48.2 °F100 %30.20 in6.0 miNorthRainLight Rain
2:35 AM48.2 °F48.2 °F100 %30.18 in5.0 miSouth (180°)4.6 mphRainLight Rain
2:55 AM48.2 °F48.2 °F100 %30.17 in9.0 miSouth (180°)5.8 mphScattered Clouds
3:15 AM48.2 °F48.2 °F100 %30.17 in10.0 miSouth (180°)5.8 mphMostly Cloudy
3:35 AM48.2 °F48.2 °F100 %30.16 in10.0 miSouth (190°)8.1 mphOvercast
3:55 AM48.2 °F48.2 °F100 %30.15 in10.0 miSSW (200°)9.2 mphOvercast
4:15 AM48.2 °F48.2 °F100 %30.14 in10.0 miSouth (180°)5.8 mphOvercast
4:35 AM50.0 °F48.2 °F94 %30.14 in10.0 miSouth (190°)10.4 mphOvercast
4:55 AM50.0 °F48.2 °F94 %30.14 in10.0 miSSW (200°)10.4 mphOvercast
5:15 AM50.0 °F48.2 °F94 %30.14 in10.0 miSouth (190°)9.2 mphRainLight Rain
5:35 AM48.2 °F48.2 °F100 %30.13 in10.0 miSouth (190°)9.2 mphOvercast
5:55 AM48.2 °F48.2 °F100 %30.12 in10.0 miSouth (190°)10.4 mphRainLight Rain
6:15 AM48.2 °F48.2 °F100 %30.11 in10.0 miSouth (190°)8.1 mphOvercast
6:35 AM48.2 °F48.2 °F100 %30.11 in10.0 miSouth (180°)8.1 mphMostly Cloudy
6:55 AM48.2 °F48.2 °F100 %30.10 in10.0 miSouth (190°)6.9 mphMostly Cloudy
7:15 AM48.2 °F48.2 °F100 %30.09 in10.0 miSouth (190°)8.1 mphMostly Cloudy
7:35 AM48.2 °F48.2 °F100 %30.09 in10.0 miSouth (190°)9.2 mphMostly Cloudy
7:55 AM48.2 °F48.2 °F100 %30.09 in10.0 miSSW (200°)8.1 mphOvercast
8:15 AM48.2 °F48.2 °F100 %30.08 in10.0 miSouth (180°)8.1 mphOvercast
8:35 AM48.2 °F46.4 °F93 %30.08 in10.0 miSouth (190°)6.9 mphOvercast
8:55 AM50.0 °F48.2 °F94 %30.07 in10.0 miSouth (190°)8.1 mphMostly Cloudy
9:15 AM50.0 °F48.2 °F94 %30.07 in10.0 miSouth (190°)8.1 mphScattered Clouds
9:35 AM50.0 °F46.4 °F87 %30.06 in10.0 miSouth (190°)8.1 mphScattered Clouds
9:55 AM50.0 °F48.2 °F94 %30.05 in10.0 miSouth (190°)10.4 mph16.1 mphScattered Clouds
10:15 AM50.0 °F46.4 °F87 %30.05 in10.0 miSouth (190°)11.5 mphMostly Cloudy
10:35 AM50.0 °F46.4 °F87 %30.05 in10.0 miSouth (190°)10.4 mphMostly Cloudy
10:55 AM50.0 °F46.4 °F87 %30.05 in5.0 miSouth (190°)9.2 mphRainLight Rain
11:15 AM50.0 °F48.2 °F94 %30.04 in4.0 miSouth (190°)9.2 mphRainLight Rain
11:35 AM50.0 °F48.2 °F94 %30.03 in8.0 miSouth (180°)10.4 mphPartly Cloudy
11:55 AM51.8 °F48.2 °F88 %30.03 in10.0 miSouth (190°)10.4 mphScattered Clouds
12:15 PM51.8 °F48.2 °F88 %30.02 in10.0 miSouth (190°)9.2 mphScattered Clouds
12:55 PM50.0 °F48.2 °F94 %30.01 in10.0 miSSW (210°)9.2 mphOvercast
1:15 PM50.0 °F46.4 °F87 %30.01 in10.0 miSW (220°)9.2 mph19.6 mphOvercast
1:35 PM50.0 °F46.4 °F87 %30.00 in8.0 miSSW (200°)12.7 mph18.4 mphRainLight Rain
1:55 PM48.2 °F44.6 °F87 %30.02 in3.0 miWSW (250°)10.4 mphRainRain
2:15 PM46.4 °F44.6 °F93 %30.03 in2.0 miWest (280°)4.6 mph0.01 inRainRain
2:35 PM46.4 °F41.0 °F81 %30.04 in5.0 miSW (230°)6.9 mph0.01 inRainLight Rain
2:55 PM44.6 °F41.0 °F87 %30.03 in5.0 miWSW (240°)8.1 mph0.01 inRainLight Rain
3:15 PM44.6 °F42.8 °F93 %30.04 in9.0 miSSW (210°)6.9 mphRainLight Rain
3:35 PM46.4 °F42.8 °F87 %30.04 in10.0 miSSW (200°)6.9 mphRainLight Rain
3:55 PM46.4 °F42.8 °F87 %30.04 in10.0 miSouth (180°)3.5 mphClear
4:15 PM44.6 °F41.0 °F87 %30.04 in10.0 miSSW (200°)8.1 mphClear
4:35 PM44.6 °F41.0 °F87 %30.05 in10.0 miSW (220°)8.1 mphClear
5:15 PM46.4 °F41.0 °F81 %30.05 in10.0 miSSW (210°)3.5 mphClear
5:35 PM46.4 °F39.2 °F76 %30.06 in10.0 miWSW (250°)6.9 mphMostly Cloudy
5:55 PM46.4 °F37.4 °F71 %30.07 in10.0 miSW (230°)5.8 mphOvercast
6:15 PM46.4 °F37.4 °F71 %30.07 in10.0 miSW (230°)5.8 mphOvercast
6:35 PM44.6 °F37.4 °F76 %30.08 in10.0 miSW (230°)6.9 mphScattered Clouds
6:55 PM44.6 °F37.4 °F76 %30.08 in10.0 miSW (220°)5.8 mphClear
7:15 PM44.6 °F37.4 °F76 %30.09 in10.0 miSSW (200°)3.5 mphClear
7:35 PM44.6 °F37.4 °F76 %30.10 in10.0 miCalmClear
7:55 PM42.8 °F35.6 °F76 %30.11 in10.0 miSSW (200°)3.5 mphPartly Cloudy
8:15 PM42.8 °F35.6 °F76 %30.11 in10.0 miSSW (210°)6.9 mphMostly Cloudy
8:35 PM42.8 °F35.6 °F76 %30.13 in10.0 miSouth (190°)3.5 mphScattered Clouds
8:55 PM42.8 °F35.6 °F76 %30.14 in10.0 miNW (310°)6.9 mphMostly Cloudy
9:15 PM41.0 °F37.4 °F87 %30.14 in10.0 miWNW (300°)6.9 mphOvercast
9:35 PM41.0 °F37.4 °F87 %30.15 in10.0 miNW (310°)4.6 mphMostly Cloudy
9:55 PM41.0 °F37.4 °F87 %30.14 in10.0 miWest (260°)4.6 mphPartly Cloudy
10:15 PM39.2 °F37.4 °F93 %30.15 in10.0 miCalmClear
11:15 PM37.4 °F35.6 °F93 %30.14 in10.0 miSSW (200°)4.6 mphClear
11:35 PM37.4 °F35.6 °F93 %30.14 in10.0 miSSW (210°)6.9 mphClear
11:55 PM37.4 °F35.6 °F93 %30.15 in10.0 miSSW (210°)6.9 mphClear
Hourly data recorded from CZBB, located miles away from Vancouver, British Columbia







STORIES FROM OUR PARTNERS